• In Italy
  • List of Countries
  • For 7 days
  • Water Temperature
  • Satellite Maps
  • Weather Map
  • Weather Widgets
  • user-avatar
    Login

    Hourly Weather Janowiczki

    Today, 18 June, Monday

    Time Temperature Precipitation Wind Pressure Humidity
    00:00 +14°C° 0 mm 3 mps 757 mmHg 80%
    01:00 +14°C° 0 mm 3 mps 757 mmHg 83%
    02:00 +14°C° 0 mm 3 mps 757 mmHg 85%
    03:00 +14°C° 0 mm 3 mps 758 mmHg 86%
    04:00 +13°C° 0 mm 3 mps 758 mmHg 88%
    05:00 +16°C° 0 mm 3 mps 758 mmHg 82%
    06:00 +17°C° 0 mm 3 mps 758 mmHg 75%
    07:00 +19°C° 0 mm 3 mps 759 mmHg 68%
    08:00 +20°C° 0 mm 3 mps 759 mmHg 62%
    09:00 +21°C° 0 mm 3 mps 759 mmHg 56%
    10:00 +24°C° 0 mm 3 mps 759 mmHg 49%
    11:00 +24°C° 0 mm 3 mps 759 mmHg 48%
    12:00 +23°C° 0 mm 4 mps 759 mmHg 47%
    13:00 +25°C° 0 mm 4 mps 759 mmHg 47%
    14:00 +23°C° 0 mm 4 mps 759 mmHg 48%
    15:00 +23°C° 0 mm 4 mps 759 mmHg 50%
    16:00 +24°C° 0 mm 3 mps 759 mmHg 52%
    17:00 +22°C° 0 mm 3 mps 759 mmHg 59%
    18:00 +21°C° 0 mm 3 mps 759 mmHg 65%
    19:00 +19°C° 0 mm 2 mps 759 mmHg 71%
    20:00 +18°C° 0 mm 2 mps 759 mmHg 76%
    21:00 +17°C° 0 mm 2 mps 759 mmHg 80%
    22:00 +15°C° 0 mm 2 mps 759 mmHg 84%
    23:00 +15°C° 0 mm 2 mps 759 mmHg 86%

    Tomorrow, 19 June, Tuesday

    Time Temperature Precipitation Wind Pressure Humidity
    00:00 +14°C° 0 mm 3 mps 759 mmHg 87%
    01:00 +14°C° 0 mm 4 mps 759 mmHg 88%
    02:00 +14°C° 0 mm 4 mps 759 mmHg 88%
    03:00 +14°C° 0 mm 4 mps 758 mmHg 89%
    04:00 +14°C° 0 mm 4 mps 758 mmHg 89%
    05:00 +15°C° 0 mm 5 mps 758 mmHg 85%
    06:00 +17°C° 0 mm 5 mps 758 mmHg 80%
    07:00 +19°C° 0 mm 6 mps 758 mmHg 76%
    08:00 +20°C° 0.1 mm 6 mps 758 mmHg 72%
    09:00 +21°C° 0.1 mm 7 mps 759 mmHg 68%
    10:00 +22°C° 0.1 mm 7 mps 759 mmHg 64%
    11:00 +22°C° 0 mm 7 mps 759 mmHg 60%
    12:00 +23°C° 0 mm 7 mps 759 mmHg 56%
    13:00 +24°C° 0 mm 7 mps 759 mmHg 51%
    14:00 +24°C° 0 mm 7 mps 759 mmHg 52%
    15:00 +24°C° 0 mm 7 mps 759 mmHg 53%
    16:00 +24°C° 0 mm 7 mps 759 mmHg 53%
    17:00 +22°C° 0 mm 7 mps 759 mmHg 60%
    18:00 +21°C° 0 mm 7 mps 759 mmHg 67%
    19:00 +20°C° 0 mm 6 mps 759 mmHg 74%
    20:00 +19°C° 0 mm 6 mps 759 mmHg 80%
    21:00 +17°C° 0 mm 6 mps 760 mmHg 85%
    22:00 +15°C° 0 mm 5 mps 760 mmHg 90%
    23:00 +15°C° 0 mm 5 mps 760 mmHg 91%

    Day after tomorrow, 20 June, Wednesday

    Time Temperature Precipitation Wind Pressure Humidity
    00:00 +14°C° 0 mm 4 mps 761 mmHg 92%
    01:00 +13°C° 0 mm 4 mps 761 mmHg 93%
    02:00 +13°C° 0 mm 4 mps 761 mmHg 92%
    03:00 +12°C° 0 mm 4 mps 761 mmHg 92%
    04:00 +12°C° 0 mm 4 mps 761 mmHg 92%
    05:00 +14°C° 0 mm 4 mps 762 mmHg 83%
    06:00 +15°C° 0 mm 4 mps 762 mmHg 74%
    07:00 +18°C° 0 mm 4 mps 762 mmHg 65%
    08:00 +19°C° 0 mm 4 mps 762 mmHg 59%
    09:00 +21°C° 0 mm 4 mps 762 mmHg 54%
    10:00 +22°C° 0 mm 4 mps 762 mmHg 48%
    11:00 +23°C° 0 mm 4 mps 762 mmHg 45%
    12:00 +25°C° 0 mm 5 mps 762 mmHg 42%
    13:00 +26°C° 0 mm 5 mps 761 mmHg 39%
    14:00 +26°C° 0 mm 5 mps 761 mmHg 40%
    15:00 +26°C° 0 mm 5 mps 761 mmHg 40%
    16:00 +26°C° 0 mm 5 mps 760 mmHg 41%
    17:00 +23°C° 0 mm 4 mps 760 mmHg 47%
    18:00 +22°C° 0 mm 3 mps 760 mmHg 53%
    19:00 +21°C° 0 mm 2 mps 759 mmHg 59%
    20:00 +20°C° 0 mm 3 mps 759 mmHg 62%
    21:00 +19°C° 0 mm 3 mps 759 mmHg 66%
    22:00 +17°C° 0 mm 3 mps 759 mmHg 69%
    23:00 +17°C° 0 mm 4 mps 758 mmHg 70%

    21 June, Thursday

    Time Temperature Precipitation Wind Pressure Humidity
    00:00 +18°C° 0 mm 4 mps 758 mmHg 71%
    01:00 +17°C° 0 mm 5 mps 757 mmHg 72%
    02:00 +17°C° 0 mm 5 mps 757 mmHg 73%
    03:00 +17°C° 0 mm 5 mps 756 mmHg 75%
    04:00 +17°C° 0 mm 5 mps 756 mmHg 77%
    05:00 +20°C° 0.1 mm 5 mps 755 mmHg 74%
    06:00 +22°C° 0.1 mm 6 mps 755 mmHg 71%
    07:00 +23°C° 0.1 mm 6 mps 754 mmHg 68%
    08:00 +24°C° 0.2 mm 6 mps 754 mmHg 65%
    09:00 +26°C° 0.2 mm 6 mps 753 mmHg 62%
    10:00 +27°C° 0.2 mm 6 mps 753 mmHg 59%
    11:00 +26°C° 0.6 mm 5 mps 752 mmHg 64%
    12:00 +25°C° 0.6 mm 4 mps 752 mmHg 69%
    13:00 +25°C° 0.6 mm 4 mps 751 mmHg 75%
    14:00 +22°C° 1.6 mm 4 mps 751 mmHg 81%
    15:00 +20°C° 1.6 mm 5 mps 750 mmHg 87%
    16:00 +19°C° 1.6 mm 5 mps 750 mmHg 93%
    17:00 +17°C° 0.4 mm 6 mps 750 mmHg 92%
    18:00 +15°C° 0.4 mm 6 mps 750 mmHg 91%
    19:00 +14°C° 0.4 mm 7 mps 750 mmHg 90%
    20:00 +14°C° 0.1 mm 7 mps 750 mmHg 89%
    21:00 +12°C° 0.1 mm 7 mps 750 mmHg 88%
    22:00 +11°C° 0.1 mm 7 mps 751 mmHg 87%
    23:00 +11°C° 0.1 mm 8 mps 751 mmHg 85%

    22 June, Friday

    Time Temperature Precipitation Wind Pressure Humidity
    00:00 +10°C° 0.1 mm 8 mps 751 mmHg 83%
    01:00 +10°C° 0.1 mm 8 mps 751 mmHg 81%
    02:00 +10°C° 0.1 mm 8 mps 751 mmHg 81%
    03:00 +10°C° 0.1 mm 8 mps 751 mmHg 80%
    04:00 +10°C° 0.1 mm 8 mps 751 mmHg 80%
    05:00 +10°C° 0.1 mm 9 mps 751 mmHg 74%
    06:00 +11°C° 0.1 mm 9 mps 751 mmHg 67%
    07:00 +12°C° 0.1 mm 10 mps 751 mmHg 61%
    08:00 +13°C° 0.1 mm 10 mps 751 mmHg 60%
    09:00 +13°C° 0.1 mm 10 mps 752 mmHg 59%
    10:00 +13°C° 0.1 mm 10 mps 752 mmHg 59%
    11:00 +14°C° 0.4 mm 10 mps 752 mmHg 58%
    12:00 +14°C° 0.4 mm 10 mps 752 mmHg 58%
    13:00 +16°C° 0.4 mm 10 mps 752 mmHg 58%
    14:00 +16°C° 0.5 mm 10 mps 752 mmHg 61%
    15:00 +15°C° 0.5 mm 9 mps 752 mmHg 64%
    16:00 +15°C° 0.5 mm 8 mps 752 mmHg 66%
    17:00 +15°C° 0.3 mm 7 mps 752 mmHg 71%
    18:00 +14°C° 0.3 mm 6 mps 752 mmHg 75%
    19:00 +13°C° 0.3 mm 5 mps 753 mmHg 79%
    20:00 +12°C° 0.1 mm 4 mps 753 mmHg 82%
    21:00 +12°C° 0.1 mm 4 mps 753 mmHg 85%
    22:00 +11°C° 0.1 mm 4 mps 753 mmHg 88%
    23:00 +10°C° 0 mm 4 mps 753 mmHg 88%

    23 June, Saturday

    Time Temperature Precipitation Wind Pressure Humidity
    00:00 +10°C° 0 mm 4 mps 753 mmHg 88%
    01:00 +10°C° 0 mm 4 mps 753 mmHg 89%
    02:00 +9°C° 0 mm 5 mps 753 mmHg 88%
    03:00 +9°C° 0 mm 5 mps 754 mmHg 87%
    04:00 +9°C° 0 mm 5 mps 754 mmHg 86%
    05:00 +10°C° 0.3 mm 6 mps 754 mmHg 83%
    06:00 +13°C° 0.3 mm 6 mps 754 mmHg 79%
    07:00 +14°C° 0.3 mm 6 mps 754 mmHg 75%
    08:00 +14°C° 0.5 mm 6 mps 754 mmHg 78%
    09:00 +14°C° 0.5 mm 6 mps 754 mmHg 82%
    10:00 +14°C° 0.5 mm 6 mps 755 mmHg 86%
    11:00 +14°C° 0.4 mm 6 mps 755 mmHg 83%
    12:00 +15°C° 0.4 mm 6 mps 755 mmHg 81%
    13:00 +15°C° 0.4 mm 6 mps 755 mmHg 78%
    14:00 +16°C° 0.2 mm 6 mps 755 mmHg 73%
    15:00 +17°C° 0.2 mm 6 mps 756 mmHg 67%
    16:00 +17°C° 0.2 mm 5 mps 756 mmHg 62%
    17:00 +17°C° 0 mm 5 mps 756 mmHg 63%
    18:00 +17°C° 0 mm 4 mps 756 mmHg 65%
    19:00 +17°C° 0 mm 3 mps 756 mmHg 66%
    20:00 +16°C° 0 mm 3 mps 757 mmHg 72%
    21:00 +14°C° 0 mm 2 mps 757 mmHg 79%
    22:00 +12°C° 0 mm 1 mps 757 mmHg 86%
    23:00 +12°C° 0 mm 2 mps 757 mmHg 86%
    Show more